Location: Newark
(43.5831°N, 21.3381°E)
Time: 05:02:12
(UTC+00:00)

Envisat - Pass Details

Date: 14 December 2019
Orbit: 764 x 766 km, 98.1° (Epoch: 20 January)

Event Time Altitude Azimuth Distance (km) Brightness Sun altitude
Rises 16:46:12 0° 176° (S) 3,218 6.4 -18.7°
Reaches altitude 10° 16:48:32 10° 180° (S) 2,297 5.6 -19.1°
Maximum altitude 16:53:32 59° 259° (W) 883 3.6 -20.0°
Drops below altitude 10° 16:58:34 10° 339° (NNW) 2,313 5.6 -20.9°
Sets 17:00:55 0° 344° (NNW) 3,244 6.3 -21.3°
